This is the latest recevied weather packets stored in our database for station/object KE5VBO-1. If no packets are shown the sender has not sent any weather packets the latest 10 day(s).
| Time | Temp. | Humidity | Pressure | Rain* | Wind** | Luminosity | Snow |
|---|---|---|---|---|---|---|---|
| 1777789833 | 13.33° C | 15% | 1018.8 hPa | 0 mm | - | - | - |
| 1777788969 | 13.89° C | 15% | 1018.8 hPa | 0 mm | - | - | - |
| 1777788034 | 13.89° C | 19% | 1018.7 hPa | 0 mm | - | - | - |
| 1777787174 | 13.89° C | 28% | 1018.7 hPa | 0 mm | - | - | - |
| 1777786237 | 14.44° C | 28% | 1018.6 hPa | 0 mm | - | - | - |
| 1777785368 | 14.44° C | 28% | 1018.5 hPa | 0 mm | - | - | - |
| 1777784436 | 15° C | 29% | 1018.4 hPa | 0 mm | - | - | - |
| 1777783569 | 15° C | 22% | 1018.5 hPa | 0 mm | - | - | - |
| 1777782647 | 15° C | 34% | 1018.4 hPa | 0 mm | - | - | - |
| 1777781703 | 15° C | 25% | 1018.4 hPa | 0 mm | - | - | - |
| 1777780852 | 15° C | 30% | 1018.4 hPa | 0 mm | - | - | - |
| 1777779911 | 15° C | 32% | 1018.4 hPa | 0 mm | - | - | - |
| 1777779049 | 15.56° C | 34% | 1018.3 hPa | 0 mm | - | - | - |
| 1777778111 | 15.56° C | 40% | 1018.2 hPa | 0 mm | - | - | - |
| 1777777255 | 16.11° C | 41% | 1018.1 hPa | 0 mm | - | - | - |
| 1777776326 | 16.67° C | 45% | 1018 hPa | 0 mm | - | - | - |
| 1777775462 | 16.67° C | 48% | 1017.8 hPa | 0 mm | - | - | - |
| 1777774523 | 17.22° C | 49% | 1017.8 hPa | 0 mm | - | - | - |
| 1777773662 | 17.78° C | 48% | 1017.7 hPa | 0 mm | - | - | - |
| 1777772725 | 18.33° C | 50% | 1017.5 hPa | 0 mm | - | - | - |
| 1777771861 | 18.89° C | 53% | 1017.4 hPa | 0 mm | - | - | - |
| 1777770928 | 19.44° C | 51% | 1017.4 hPa | 0 mm | - | - | - |
| 1777770067 | 20° C | 54% | 1017.3 hPa | 0 mm | - | - | - |
| 1777769138 | 20.56° C | 53% | 1017.2 hPa | 0 mm | - | - | - |
| 1777768211 | 21.11° C | 53% | 1017.1 hPa | 0 mm | - | - | - |
* Rain latest hour (hover to see other rain measurements)
** Current wind speed in m/s (hover to see current wind gust speed)